Regional Weather Roundup
Issued by NWS

Home | Current Version | Previous Version | Text Only | Print | Product List | Glossary On
Versions: 1 2 3 4 5 6 7 8 9 10 11 12 13 14 15 16 17 18 19 20 21 22 23 24 25 26 27 28 29 30 31 32 33 34 35 36 37 38 39 40 41 42 43 44 45 46 47 48 49 50
000
ASUS44 KFWD 222115
RWRTX
NORTH TEXAS HOURLY WEATHER ROUNDUP
NATIONAL WEATHER SERVICE FORT WORTH TX
400 PM CDT WED OCT 22 2014

NOTE: "FAIR" INDICATES FEW OR NO CLOUDS BELOW 12,000 FEET WITH NO
SIGNIFICANT WEATHER AND/OR OBSTRUCTIONS TO VISIBILITY.

TXZ118-119-222200-
DALLAS/FORT WORTH METROPLEX

CITY           SKY/WX    TMP DP  RH WIND       PRES   REMARKS
DFW AIRPORT    PTSUNNY   79  57  46 S7        30.07F
DALLAS LOVE    PTSUNNY   79  57  46 SE12      30.08F
FTW MEACHAM    PTSUNNY   80  58  46 E13       30.07F
DAL-EXECUTIVE  PTSUNNY   80  58  46 SE8       30.08F
FTW-ALLIANCE   PTSUNNY   80  57  45 E8        30.07F
FTW-NAS-JRB    PTSUNNY   85  57  38 E12       30.11F
FTW-SPINKS     MOSUNNY   81  57  44 E9        30.09F
ARLINGTON      MOSUNNY   79  56  45 SE9       30.08F
GRAND PRAIRIE  MOSUNNY   79  59  50 MISG      30.09F
ADDISON        PTSUNNY   79  54  41 SE6       30.08F
MESQUITE       PTSUNNY   81  54  39 SE7       30.08F
LANCASTER      MOSUNNY   80  54  40 SE7       30.08F
$$

TXZ091>094-102>105-117-120-121-131>134-222200-
NORTH CENTRAL TEXAS

CITY           SKY/WX    TMP DP  RH WIND       PRES   REMARKS
SHRMAN/DENISON MOSUNNY   80  61  53 E9        30.09F
GAINESVILLE    MOSUNNY   78  57  49 SE9       30.10F
BOWIE          PTSUNNY   76  59  55 SE7       30.09S
BRIDGEPORT     PTSUNNY   78  61  54 SE7       30.10S
DECATUR        PTSUNNY   77  57  49 SE7       30.09F
DENTON         MOSUNNY   79  58  48 SE10      30.08F
MCKINNEY       PTSUNNY   80  56  43 SE12      30.08F
GREENVILLE     MOSUNNY   79  54  41 E5        30.09F
ROCKWALL       MOSUNNY   78  57  49 SE6       30.08F
TERRELL        PTSUNNY   80  56  43 NE10      30.09F
WAXAHACHIE     CLOUDY    78  59  51 E7        30.09F
CLEBURNE       MOSUNNY   79  59  50 SE6       30.09F
GRANBURY       MOSUNNY   80  57  44 SE6       30.08F
$$

TXZ083>090-098>101-113>116-127>130-139>142-154-155-222200-
WESTERN NORTH TEXAS

CITY           SKY/WX    TMP DP  RH WIND       PRES   REMARKS
WICHITA FALLS  CLOUDY    75  58  55 S13       30.08F
WF-KICKAPOO    CLOUDY    76  56  49 S10       30.10S
VERNON         CLOUDY    66  57  72 W5        30.11S
ABILENE        LGT RAIN  73  54  51 S13       30.11S
ABILENE-DYESS  CLOUDY    70  57  64 S3        30.10S
BRECKENRIDGE   CLOUDY    77  53  44 MISG      30.09S HAZE
GRAHAM         CLOUDY    73  60  62 CALM      30.08F
MINERAL WELLS  MOSUNNY   78  57  48 S8        30.07F
STEPHENVILLE   MOSUNNY   78  56  47 SE8       30.11F
COMANCHE       MOSUNNY   78  57  49 SE8       30.09S
BROWNWOOD      PTSUNNY   77  54  44 S7        30.08S
COLEMAN        RAIN      75  53  44 CALM      30.10S
BRADY          SUNNY     79  50  36 SE7       30.07F
$$

TXZ143>147-156>162-174-175-222200-
CENTRAL TEXAS

CITY           SKY/WX    TMP DP  RH WIND       PRES   REMARKS
WACO           MOSUNNY   81  58  45 E9        30.06F
WACO-TSTC      SUNNY     81  59  47 CALM      30.06F
WACO-MCGREGOR  MOSUNNY   81  57  44 E7        30.08F
HILLSBORO      MOSUNNY   81  55  40 E7        30.08S
CORSICANA      SUNNY     80  55  42 E6        30.08F
MEXIA          SUNNY     79  57  45 E3        30.07S
HEARNE         PTSUNNY   80  61  51 N8        30.07S
CAMERON        PTSUNNY   81  60  49 NE9       30.06S
TEMPLE         PTSUNNY   81  57  44 E13       30.06F
KILLEEN        MOSUNNY   79  57  47 E9        30.07F
KILLEEN-SKYLRK MOSUNNY   81  57  44 SE7       30.07F
FORT HOOD      PTSUNNY   81  59  47 E5        30.07S
GATESVILLE     MOSUNNY   81  59  47 SE6       30.09F
HAMILTON       PTSUNNY   79  55  43 SE13      30.09S
LAMPASAS       SUNNY     78  58  50 SE7       30.06F
$$

TXZ095>097-106>112-122>126-135>138-148>153-164>167-222200-
EAST TEXAS

CITY           SKY/WX    TMP DP  RH WIND       PRES   REMARKS
PARIS          MOSUNNY   77  52  41 SE3       30.11F
SULPHUR SPRNGS MOSUNNY   79  52  39 E8        30.11F
MOUNT PLEASANT SUNNY     78  51  38 E7        30.11F
MINEOLA        SUNNY     79  52  38 NE6       30.10F
TYLER          SUNNY     79  52  38 E6        30.08F
LONGVIEW       SUNNY     78  52  40 VRB3      30.08F
MARSHALL       SUNNY     78  50  37 NE5       30.11F
ATHENS         SUNNY     77  54  44 E7        30.07S
PALESTINE      SUNNY     79  58  47 E5        30.08F
JACKSONVILLE   SUNNY     77  55  45 E3        30.10F
HENDERSON      SUNNY     79  51  38 E3        30.09F
NACOGDOCHES    SUNNY     79  54  41 E7        30.08S
LUFKIN         SUNNY     82  56  40 VRB6      30.06F
$$

SUPPLEMENTAL OBSERVATIONS (CENTRAL)

CITY           SKY/WX    TMP DP  RH WIND       PRES   REMARKS
LAKE TEXOMA      N/A     79  57  47 E7          N/A
CADDO GRASSLND   N/A     75  57  53 SE3         N/A
PAT MAYSE LAKE   N/A     75  55  50 E3          N/A
PALESTINE        N/A     81  57  44 E7          N/A
LAKE LIMESTONE   N/A     81  55  41 NE5         N/A
MCGREGOR         N/A     81  57  44 S6          N/A
TEMPLE           N/A     81  59  47 NE9         N/A
$$

SUPPLEMENTAL OBSERVATIONS (WEST)

CITY           SKY/WX    TMP DP  RH WIND       PRES   REMARKS
MILLERS CREEK    N/A     75  52  43 W5          N/A
POSSUM KINGDOM   N/A     75  54  46 S7          N/A
LBJ GRASSLAND    N/A     79  59  50 S8          N/A
GRANBURY         N/A     81  57  44 S8G16       N/A
COMANCHE         N/A     79  55  44 SE9         N/A
HAMBY            N/A     72  52  49 W7          N/A
IVIE RESERVOIR   N/A     72  52  49 NW7         N/A
COLORADO BEND    N/A     81  54  39 S7          N/A
$$

SUPPLEMENTAL OBSERVATIONS (EAST)

CITY           SKY/WX    TMP DP  RH WIND       PRES   REMARKS
CLARKSVILLE      N/A     79  52  38 E7G15       N/A
TEXARKANA        N/A     79  50  36 E5          N/A
LINDEN           N/A     79  50  36 E6          N/A
CADDO LAKE       N/A     79  50  36 E5          N/A
GILMER           N/A     79  52  38 E5          N/A
HENDERSON        N/A     79  50  36 E8          N/A
LUFKIN           N/A     81  55  41 MISG        N/A
$$

SUPPLEMENTAL OBSERVATIONS ARE A COLLECTION OF AUTOMATED INSTRUMENTS
THAT ARE MAINTAINED BY A VARIETY OF FEDERAL AND STATE AGENCIES.
CERTAIN ELEMENTS...SUCH AS HUMIDITY VALUES AND SUSTAINED WIND
SPEEDS...MAY BE APPROXIMATED.




USA.gov is the U.S. government's official web portal to all federal, state and local government web resources and services.